| time (UTC) | temp C | wind direction | speed KPH | gust KPH | rain 1hr cm | rain 24hr cm | rain mn cm | humidity % | barometer mb |
| 20260509101557 | 14 | 117 | 0.0 | 0.0 | 0.00 | 0.00 | 0.00 | 76 | 1025.9 |
| 20260509101059 | 14 | 117 | 0.0 | 0.0 | 0.00 | 0.00 | 0.00 | 75 | 1025.9 |
| 20260509100557 | 14 | 117 | 0.0 | 0.0 | 0.00 | 0.00 | 0.00 | 75 | 1025.9 |
| 20260509100057 | 14 | 117 | 0.0 | 0.0 | 0.00 | 0.00 | 0.00 | 74 | 1025.8 |
| 20260509095557 | 14 | 118 | 0.0 | 0.0 | 0.00 | 0.00 | 0.00 | 74 | 1025.8 |
| 20260509095056 | 15 | 117 | 0.0 | 0.0 | 0.00 | 0.00 | 0.00 | 73 | 1025.8 |
| 20260509094821 | 15 | 117 | 0.0 | 0.0 | 0.00 | 0.00 | 0.00 | 72 | 1025.7 |
| 20260509094056 | 15 | 117 | 0.0 | 0.0 | 0.00 | 0.00 | 0.00 | 72 | 1025.6 |
| 20260509093557 | 15 | 117 | 0.0 | 0.0 | 0.00 | 0.00 | 0.00 | 72 | 1025.6 |
| 20260509093548 | 15 | 117 | 0.0 | 0.0 | 0.00 | 0.00 | 0.00 | 71 | 1025.5 |
| 20260509092558 | 15 | 117 | 0.0 | 0.0 | 0.00 | 0.00 | 0.00 | 71 | 1025.5 |
| 20260509092057 | 15 | 117 | 0.0 | 0.0 | 0.00 | 0.00 | 0.00 | 70 | 1025.4 |
| 20260509091558 | 16 | 117 | 0.0 | 0.0 | 0.00 | 0.00 | 0.00 | 69 | 1025.3 |
| 20260509091057 | 16 | 118 | 0.0 | 0.0 | 0.00 | 0.00 | 0.00 | 68 | 1025.3 |
| 20260509090830 | 16 | 117 | 0.0 | 0.0 | 0.00 | 0.00 | 0.00 | 67 | 1025.2 |
| 20260509090058 | 16 | 117 | 0.0 | 0.0 | 0.00 | 0.00 | 0.00 | 66 | 1025.1 |
| 20260509085554 | 16 | 118 | 0.0 | 0.0 | 0.00 | 0.00 | 0.00 | 66 | 1025.1 |
| 20260509085540 | 16 | 117 | 0.0 | 0.0 | 0.00 | 0.00 | 0.00 | 65 | 1025.0 |
| 20260509084554 | 17 | 118 | 0.0 | 0.0 | 0.00 | 0.00 | 0.00 | 64 | 1024.9 |
| 20260509084050 | 17 | 117 | 0.0 | 0.0 | 0.00 | 0.00 | 0.00 | 64 | 1024.8 |
| 20260509083550 | 17 | 117 | 0.0 | 0.0 | 0.00 | 0.00 | 0.00 | 64 | 1024.8 |
| 20260509083319 | 17 | 117 | 0.0 | 0.0 | 0.00 | 0.00 | 0.00 | 64 | 1024.7 |
| 20260509082551 | 17 | 117 | 0.0 | 0.0 | 0.00 | 0.00 | 0.00 | 65 | 1024.7 |
| 20260509082046 | 17 | 117 | 0.0 | 0.0 | 0.00 | 0.00 | 0.00 | 65 | 1024.6 |
| 20260509081539 | 17 | 117 | 0.0 | 0.0 | 0.00 | 0.00 | 0.00 | 65 | 1024.5 |
| 20260509081518 | 17 | 117 | 0.0 | 0.0 | 0.00 | 0.00 | 0.00 | 64 | 1024.4 |
| 20260509080528 | 17 | 117 | 0.0 | 0.0 | 0.00 | 0.00 | 0.00 | 64 | 1024.4 |
| 20260509080022 | 17 | 117 | 0.0 | 0.0 | 0.00 | 0.00 | 0.00 | 64 | 1024.3 |
| 20260509075516 | 17 | 117 | 0.0 | 0.0 | 0.00 | 0.00 | 0.00 | 64 | 1024.2 |
| 20260509075010 | 18 | 117 | 0.0 | 0.0 | 0.00 | 0.00 | 0.00 | 63 | 1024.2 |
| 20260509074503 | 18 | 117 | 0.0 | 0.0 | 0.00 | 0.00 | 0.00 | 63 | 1024.1 |
| 20260509073959 | 18 | 118 | 0.0 | 0.0 | 0.00 | 0.00 | 0.00 | 63 | 1024.1 |
| 20260509073452 | 18 | 117 | 0.0 | 0.0 | 0.00 | 0.00 | 0.00 | 63 | 1024.0 |
| 20260509072945 | 18 | 117 | 0.0 | 0.0 | 0.00 | 0.00 | 0.00 | 62 | 1023.9 |
| 20260509072441 | 18 | 117 | 0.0 | 0.0 | 0.00 | 0.00 | 0.00 | 62 | 1023.9 |
| 20260509071940 | 18 | 118 | 0.0 | 0.0 | 0.00 | 0.00 | 0.00 | 62 | 1023.9 |
| 20260509071440 | 18 | 117 | 0.0 | 0.0 | 0.00 | 0.00 | 0.00 | 61 | 1023.8 |
| 20260509070941 | 18 | 117 | 0.0 | 0.0 | 0.00 | 0.00 | 0.00 | 61 | 1023.7 |
| 20260509070440 | 18 | 117 | 0.0 | 0.0 | 0.00 | 0.00 | 0.00 | 61 | 1023.7 |
| 20260509065941 | 18 | 118 | 0.0 | 0.0 | 0.00 | 0.00 | 0.00 | 60 | 1023.6 |
| 20260509065441 | 19 | 117 | 0.0 | 0.0 | 0.00 | 0.00 | 0.00 | 60 | 1023.5 |
| 20260509064941 | 19 | 118 | 0.0 | 0.0 | 0.00 | 0.00 | 0.00 | 60 | 1023.5 |
| 20260509064438 | 19 | 118 | 0.0 | 1.6 | 0.00 | 0.00 | 0.00 | 59 | 1023.4 |
| 20260509063940 | 19 | 118 | 0.0 | 1.6 | 0.00 | 0.00 | 0.00 | 58 | 1023.4 |
| 20260509063440 | 20 | 117 | 0.0 | 1.6 | 0.00 | 0.00 | 0.00 | 58 | 1023.3 |
| 20260509062937 | 20 | 118 | 0.0 | 1.6 | 0.00 | 0.00 | 0.00 | 57 | 1023.3 |
| 20260509062438 | 20 | 117 | 0.0 | 1.6 | 0.00 | 0.00 | 0.00 | 57 | 1023.1 |
| 20260509061939 | 20 | 117 | 0.0 | 14.5 | 0.00 | 0.00 | 0.00 | 56 | 1023.1 |
| 20260509061702 | 20 | 117 | 0.0 | 14.5 | 0.00 | 0.00 | 0.00 | 55 | 1023.0 |
| 20260509060934 | 20 | 115 | 0.0 | 0.0 | 0.00 | 0.00 | 0.00 | 55 | 1023.0 |
| 20260509060434 | 20 | 121 | 0.0 | 3.2 | 0.00 | 0.00 | 0.00 | 54 | 1022.9 |
| 20260509055935 | 21 | 121 | 0.0 | 3.2 | 0.00 | 0.00 | 0.00 | 54 | 1022.9 |
| 20260509055429 | 21 | 122 | 0.0 | 4.8 | 0.00 | 0.00 | 0.00 | 53 | 1022.8 |
| 20260509054924 | 21 | 123 | 0.0 | 4.8 | 0.00 | 0.00 | 0.00 | 53 | 1022.8 |
| 20260509054419 | 21 | 150 | 0.0 | 6.4 | 0.00 | 0.00 | 0.00 | 52 | 1022.8 |
| 20260509053912 | 21 | 160 | 0.0 | 6.4 | 0.00 | 0.00 | 0.00 | 51 | 1022.7 |
| 20260509053406 | 22 | 266 | 0.0 | 0.0 | 0.00 | 0.00 | 0.00 | 50 | 1022.6 |
| 20260509052951 | 22 | 266 | 0.0 | 0.0 | 0.00 | 0.00 | 0.00 | 49 | 1022.6 |
| 20260509051848 | 22 | 266 | 0.0 | 0.0 | 0.00 | 0.00 | 0.00 | 47 | 1022.6 |
| 20260509051558 | 23 | 266 | 0.0 | 0.0 | 0.00 | 0.00 | 0.00 | 43 | 1022.5 |
| 20260509050842 | 22 | 266 | 0.0 | 0.0 | 0.00 | 0.00 | 0.00 | 43 | 1022.5 |
| 20260509050339 | 22 | 266 | 0.0 | 0.0 | 0.00 | 0.00 | 0.00 | 43 | 1022.5 |
| 20260509045838 | 22 | 266 | 0.0 | 0.0 | 0.00 | 0.00 | 0.00 | 42 | 1022.5 |
| 20260509045334 | 23 | 266 | 0.0 | 0.0 | 0.00 | 0.00 | 0.00 | 42 | 1022.5 |
| 20260509044836 | 23 | 266 | 0.0 | 0.0 | 0.00 | 0.00 | 0.00 | 43 | 1022.5 |
| 20260509044335 | 23 | 266 | 0.0 | 0.0 | 0.00 | 0.00 | 0.00 | 43 | 1022.5 |
| 20260509043832 | 23 | 266 | 0.0 | 0.0 | 0.00 | 0.00 | 0.00 | 43 | 1022.5 |
| 20260509043330 | 23 | 266 | 0.0 | 0.0 | 0.00 | 0.00 | 0.00 | 42 | 1022.5 |
| 20260509042832 | 23 | 266 | 0.0 | 0.0 | 0.00 | 0.00 | 0.00 | 42 | 1022.5 |
| 20260509042332 | 23 | 266 | 0.0 | 0.0 | 0.00 | 0.00 | 0.00 | 42 | 1022.5 |
| 20260509041830 | 23 | 266 | 1.6 | 20.9 | 0.00 | 0.00 | 0.00 | 44 | 1022.5 |
| 20260509041328 | 23 | 266 | 1.6 | 20.9 | 0.00 | 0.00 | 0.00 | 43 | 1022.5 |
| 20260509040827 | 23 | 265 | 0.0 | 3.2 | 0.00 | 0.00 | 0.00 | 43 | 1022.5 |
| 20260509040323 | 23 | 265 | 0.0 | 4.8 | 0.00 | 0.00 | 0.00 | 44 | 1022.5 |
| 20260509035822 | 23 | 265 | 0.0 | 4.8 | 0.00 | 0.00 | 0.00 | 44 | 1022.5 |
| 20260509035324 | 22 | 263 | 0.0 | 1.6 | 0.00 | 0.00 | 0.00 | 43 | 1022.5 |
| 20260509034822 | 22 | 263 | 0.0 | 3.2 | 0.00 | 0.00 | 0.00 | 44 | 1022.5 |
| 20260509034544 | 22 | 263 | 0.0 | 3.2 | 0.00 | 0.00 | 0.00 | 44 | 1022.6 |
| 20260509033824 | 22 | 263 | 1.6 | 24.1 | 0.00 | 0.00 | 0.00 | 44 | 1022.6 |
| 20260509033318 | 22 | 264 | 3.2 | 24.1 | 0.00 | 0.00 | 0.00 | 43 | 1022.6 |
| 20260509033252 | 22 | 266 | 1.6 | 11.3 | 0.00 | 0.00 | 0.00 | 43 | 1022.6 |
| 20260509032307 | 22 | 264 | 0.0 | 3.2 | 0.00 | 0.00 | 0.00 | 44 | 1022.7 |
| 20260509031759 | 22 | 264 | 0.0 | 4.8 | 0.00 | 0.00 | 0.00 | 44 | 1022.7 |
| 20260509031253 | 22 | 264 | 0.0 | 4.8 | 0.00 | 0.00 | 0.00 | 44 | 1022.8 |
| 20260509030748 | 22 | 266 | 1.6 | 11.3 | 0.00 | 0.00 | 0.00 | 44 | 1022.9 |
| 20260509030242 | 22 | 269 | 3.2 | 25.7 | 0.00 | 0.00 | 0.00 | 44 | 1022.9 |
| 20260509025959 | 22 | 263 | 3.2 | 25.7 | 0.00 | 0.00 | 0.00 | 44 | 1023.0 |
| 20260509025230 | 22 | 251 | 1.6 | 17.7 | 0.00 | 0.00 | 0.00 | 44 | 1023.0 |
| 20260509024723 | 22 | 260 | 1.6 | 12.9 | 0.00 | 0.00 | 0.00 | 44 | 1023.1 |
| 20260509024218 | 22 | 301 | 1.6 | 12.9 | 0.00 | 0.00 | 0.00 | 44 | 1023.2 |
| 20260509023711 | 22 | 264 | 0.0 | 11.3 | 0.00 | 0.00 | 0.00 | 44 | 1023.3 |
| 20260509023206 | 22 | 261 | 0.0 | 11.3 | 0.00 | 0.00 | 0.00 | 45 | 1023.4 |
| 20260509022659 | 22 | 280 | 0.0 | 0.0 | 0.00 | 0.00 | 0.00 | 45 | 1023.4 |
| 20260509022154 | 22 | 280 | 0.0 | 0.0 | 0.00 | 0.00 | 0.00 | 46 | 1023.6 |
| 20260509021648 | 22 | 280 | 0.0 | 3.2 | 0.00 | 0.00 | 0.00 | 46 | 1023.7 |
| 20260509021142 | 22 | 280 | 0.0 | 3.2 | 0.00 | 0.00 | 0.00 | 46 | 1023.7 |
| 20260509020636 | 21 | 280 | 0.0 | 3.2 | 0.00 | 0.00 | 0.00 | 47 | 1023.8 |
| 20260509020130 | 21 | 281 | 0.0 | 0.0 | 0.00 | 0.00 | 0.00 | 47 | 1023.9 |
| 20260509015623 | 21 | 281 | 0.0 | 0.0 | 0.00 | 0.00 | 0.00 | 47 | 1024.0 |
| 20260509015119 | 21 | 281 | 0.0 | 0.0 | 0.00 | 0.00 | 0.00 | 48 | 1024.1 |
| 20260509014611 | 21 | 281 | 0.0 | 0.0 | 0.00 | 0.00 | 0.00 | 49 | 1024.1 |
| 20260509014106 | 21 | 281 | 0.0 | 0.0 | 0.00 | 0.00 | 0.00 | 49 | 1024.2 |
| 20260509013831 | 20 | 281 | 0.0 | 6.4 | 0.00 | 0.00 | 0.00 | 50 | 1024.3 |
| 20260509013323 | 20 | 281 | 0.0 | 6.4 | 0.00 | 0.00 | 0.00 | 50 | 1024.3 |
| 20260509012812 | 20 | 281 | 0.0 | 14.5 | 0.00 | 0.00 | 0.00 | 52 | 1024.3 |
| 20260509012041 | 20 | 281 | 1.6 | 14.5 | 0.00 | 0.00 | 0.00 | 52 | 1024.3 |
| 20260509011535 | 20 | 279 | 0.0 | 12.9 | 0.00 | 0.00 | 0.00 | 52 | 1024.4 |
| 20260509011253 | 20 | 278 | 0.0 | 11.3 | 0.00 | 0.00 | 0.00 | 53 | 1024.3 |
| 20260509010524 | 20 | 278 | 0.0 | 11.3 | 0.00 | 0.00 | 0.00 | 53 | 1024.4 |
| 20260509010020 | 20 | 271 | 0.0 | 0.0 | 0.00 | 0.00 | 0.00 | 54 | 1024.5 |
| 20260509005512 | 19 | 271 | 0.0 | 11.3 | 0.00 | 0.00 | 0.00 | 56 | 1024.6 |
| 20260509005005 | 19 | 271 | 0.0 | 11.3 | 0.00 | 0.00 | 0.00 | 57 | 1024.7 |
| 20260509004459 | 19 | 271 | 0.0 | 11.3 | 0.00 | 0.00 | 0.00 | 57 | 1024.7 |
| 20260509003954 | 18 | 271 | 1.6 | 11.3 | 0.00 | 0.00 | 0.00 | 58 | 1024.7 |
| 20260509003448 | 18 | 262 | 0.0 | 11.3 | 0.00 | 0.00 | 0.00 | 59 | 1024.7 |
| 20260509003207 | 18 | 263 | 1.6 | 11.3 | 0.00 | 0.00 | 0.00 | 61 | 1024.8 |
| 20260509002436 | 18 | 263 | 1.6 | 11.3 | 0.00 | 0.00 | 0.00 | 62 | 1024.8 |
| 20260509001930 | 18 | 263 | 1.6 | 12.9 | 0.00 | 0.00 | 0.00 | 63 | 1024.8 |
| 20260509001424 | 17 | 263 | 1.6 | 12.9 | 0.00 | 0.00 | 0.00 | 63 | 1024.8 |
| 20260509000918 | 17 | 263 | 1.6 | 11.3 | 0.00 | 0.00 | 0.00 | 64 | 1024.8 |
| 20260509000412 | 17 | 263 | 0.0 | 4.8 | 0.00 | 0.00 | 0.00 | 65 | 1024.9 |
| 20260509000126 | 17 | 263 | 0.0 | 3.2 | 0.00 | 0.00 | 0.00 | 67 | 1024.9 |
| 20260508235400 | 17 | 263 | 0.0 | 11.3 | 0.00 | 0.00 | 0.00 | 67 | 1025.0 |
| 20260508234854 | 16 | 263 | 0.0 | 11.3 | 0.00 | 0.00 | 0.00 | 67 | 1024.9 |
| 20260508234348 | 16 | 263 | 0.0 | 16.1 | 0.00 | 0.00 | 0.00 | 68 | 1025.0 |
| 20260508234059 | 16 | 263 | 0.0 | 16.1 | 0.00 | 0.00 | 0.00 | 69 | 1024.9 |
| 20260508233554 | 16 | 263 | 0.0 | 0.0 | 0.00 | 0.00 | 0.00 | 70 | 1025.0 |
| 20260508232830 | 16 | 263 | 0.0 | 3.2 | 0.00 | 0.00 | 0.00 | 70 | 1025.0 |
| 20260508232324 | 15 | 263 | 0.0 | 3.2 | 0.00 | 0.00 | 0.00 | 72 | 1024.9 |
| 20260508231818 | 15 | 263 | 0.0 | 0.0 | 0.00 | 0.00 | 0.00 | 73 | 1024.9 |
| 20260508231311 | 15 | 263 | 0.0 | 0.0 | 0.00 | 0.00 | 0.00 | 75 | 1025.0 |
| 20260508230806 | 15 | 263 | 0.0 | 0.0 | 0.00 | 0.00 | 0.00 | 75 | 1025.0 |
| 20260508230259 | 14 | 263 | 0.0 | 0.0 | 0.00 | 0.00 | 0.00 | 77 | 1025.0 |
| 20260508230019 | 14 | 263 | 0.0 | 0.0 | 0.00 | 0.00 | 0.00 | 78 | 1025.0 |
| 20260508225248 | 13 | 263 | 0.0 | 0.0 | 0.00 | 0.00 | 0.00 | 81 | 1024.9 |
| 20260508224742 | 13 | 263 | 0.0 | 0.0 | 0.00 | 0.00 | 0.00 | 83 | 1024.9 |
| 20260508224236 | 13 | 263 | 0.0 | 0.0 | 0.00 | 0.00 | 0.00 | 84 | 1024.9 |
| 20260508223729 | 13 | 263 | 0.0 | 0.0 | 0.00 | 0.00 | 0.00 | 85 | 1024.9 |
| 20260508223450 | 12 | 263 | 0.0 | 0.0 | 0.00 | 0.00 | 0.00 | 85 | 1024.9 |
| 20260508222718 | 12 | 263 | 0.0 | 0.0 | 0.00 | 0.00 | 0.00 | 86 | 1024.9 |
| 20260508222441 | 12 | 263 | 0.0 | 0.0 | 0.00 | 0.00 | 0.00 | 87 | 1024.9 |
| 20260508221705 | 11 | 263 | 0.0 | 0.0 | 0.00 | 0.00 | 0.00 | 88 | 1024.9 |
| 20260508221200 | 11 | 263 | 0.0 | 0.0 | 0.00 | 0.00 | 0.00 | 88 | 1024.9 |
| 20260508220653 | 11 | 263 | 0.0 | 0.0 | 0.00 | 0.00 | 0.00 | 89 | 1024.9 |
| 20260508220149 | 10 | 263 | 0.0 | 0.0 | 0.00 | 0.00 | 0.00 | 89 | 1024.8 |
| 20260508215901 | 10 | 263 | 0.0 | 0.0 | 0.00 | 0.00 | 0.00 | 89 | 1024.8 |
| 20260508215136 | 10 | 263 | 0.0 | 0.0 | 0.00 | 0.00 | 0.00 | 89 | 1024.8 |
| 20260508214629 | 10 | 263 | 0.0 | 0.0 | 0.00 | 0.00 | 0.00 | 89 | 1024.7 |
| 20260508214348 | 9 | 263 | 0.0 | 0.0 | 0.00 | 0.00 | 0.00 | 88 | 1024.6 |
| 20260508213618 | 9 | 263 | 0.0 | 0.0 | 0.00 | 0.00 | 0.00 | 88 | 1024.5 |
| 20260508213111 | 9 | 263 | 0.0 | 0.0 | 0.00 | 0.00 | 0.00 | 88 | 1024.5 |
| 20260508212605 | 8 | 263 | 0.0 | 0.0 | 0.00 | 0.00 | 0.00 | 88 | 1024.5 |
| 20260508212100 | 8 | 263 | 0.0 | 0.0 | 0.00 | 0.00 | 0.00 | 88 | 1024.3 |
| 20260508211553 | 8 | 263 | 0.0 | 0.0 | 0.00 | 0.00 | 0.00 | 88 | 1024.2 |
| 20260508211539 | 8 | 263 | 0.0 | 0.0 | 0.00 | 0.00 | 0.00 | 88 | 1024.2 |
| 20260508210542 | 8 | 263 | 0.0 | 0.0 | 0.00 | 0.00 | 0.00 | 87 | 1024.1 |
| 20260508210259 | 8 | 263 | 0.0 | 0.0 | 0.00 | 0.00 | 0.00 | 87 | 1024.1 |
| 20260508205531 | 8 | 263 | 0.0 | 0.0 | 0.00 | 0.00 | 0.00 | 87 | 1024.1 |
| 20260508205252 | 8 | 263 | 0.0 | 0.0 | 0.00 | 0.00 | 0.00 | 87 | 1024.0 |
| 20260508204518 | 8 | 263 | 0.0 | 0.0 | 0.00 | 0.00 | 0.00 | 86 | 1023.9 |
| 20260508204011 | 8 | 263 | 0.0 | 0.0 | 0.00 | 0.00 | 0.00 | 86 | 1023.9 |
| 20260508203505 | 8 | 263 | 0.0 | 0.0 | 0.00 | 0.00 | 0.00 | 86 | 1023.8 |
| 20260508202959 | 8 | 263 | 0.0 | 0.0 | 0.00 | 0.00 | 0.00 | 86 | 1023.7 |
| 20260508202948 | 8 | 263 | 0.0 | 0.0 | 0.00 | 0.00 | 0.00 | 86 | 1023.7 |
| 20260508201949 | 8 | 263 | 0.0 | 0.0 | 0.00 | 0.00 | 0.00 | 85 | 1023.6 |
| 20260508201442 | 8 | 263 | 0.0 | 0.0 | 0.00 | 0.00 | 0.00 | 85 | 1023.6 |
| 20260508200935 | 8 | 263 | 0.0 | 0.0 | 0.00 | 0.00 | 0.00 | 85 | 1023.5 |
| 20260508200429 | 8 | 263 | 0.0 | 0.0 | 0.00 | 0.00 | 0.00 | 85 | 1023.5 |
| 20260508195924 | 8 | 263 | 0.0 | 0.0 | 0.00 | 0.00 | 0.00 | 89 | 1023.5 |
| 20260508195419 | 9 | 263 | 0.0 | 0.0 | 0.00 | 0.00 | 0.00 | 85 | 1023.4 |
| 20260508194912 | 9 | 263 | 0.0 | 0.0 | 0.00 | 0.00 | 0.00 | 85 | 1023.3 |
| 20260508194406 | 9 | 263 | 0.0 | 0.0 | 0.00 | 0.00 | 0.00 | 85 | 1023.2 |
| 20260508193900 | 9 | 263 | 0.0 | 0.0 | 0.00 | 0.00 | 0.00 | 85 | 1023.1 |
| 20260508193353 | 9 | 263 | 0.0 | 0.0 | 0.00 | 0.00 | 0.00 | 84 | 1023.0 |
| 20260508192849 | 9 | 263 | 0.0 | 0.0 | 0.00 | 0.00 | 0.00 | 84 | 1022.9 |
| 20260508192606 | 9 | 263 | 0.0 | 0.0 | 0.00 | 0.00 | 0.00 | 84 | 1022.9 |
| 20260508191838 | 10 | 263 | 0.0 | 0.0 | 0.00 | 0.00 | 0.00 | 84 | 1022.8 |
| 20260508191824 | 10 | 263 | 0.0 | 0.0 | 0.00 | 0.00 | 0.00 | 84 | 1022.7 |
| 20260508190823 | 10 | 263 | 0.0 | 0.0 | 0.00 | 0.00 | 0.00 | 84 | 1022.7 |
| 20260508190318 | 10 | 263 | 0.0 | 0.0 | 0.00 | 0.00 | 0.00 | 84 | 1022.6 |
| 20260508185819 | 10 | 263 | 0.0 | 0.0 | 0.00 | 0.00 | 0.00 | 83 | 1022.6 |
| 20260508185317 | 10 | 263 | 0.0 | 0.0 | 0.00 | 0.00 | 0.00 | 83 | 1022.6 |
| 20260508184819 | 10 | 263 | 0.0 | 0.0 | 0.00 | 0.00 | 0.00 | 83 | 1022.6 |
| 20260508184314 | 10 | 263 | 0.0 | 0.0 | 0.00 | 0.00 | 0.00 | 83 | 1022.5 |
| 20260508183816 | 10 | 263 | 0.0 | 0.0 | 0.00 | 0.00 | 0.00 | 83 | 1022.5 |
| 20260508183314 | 10 | 263 | 0.0 | 0.0 | 0.00 | 0.00 | 0.00 | 83 | 1022.4 |
| 20260508183033 | 10 | 263 | 0.0 | 0.0 | 0.00 | 0.00 | 0.00 | 83 | 1022.4 |
| 20260508182315 | 10 | 263 | 0.0 | 0.0 | 0.00 | 0.00 | 0.00 | 82 | 1022.4 |
| 20260508181817 | 10 | 263 | 0.0 | 0.0 | 0.00 | 0.00 | 0.00 | 82 | 1022.3 |
| 20260508181315 | 10 | 263 | 0.0 | 0.0 | 0.00 | 0.00 | 0.00 | 82 | 1022.3 |
| 20260508180816 | 10 | 263 | 0.0 | 0.0 | 0.00 | 0.00 | 0.00 | 82 | 1022.2 |
| 20260508180313 | 10 | 263 | 0.0 | 0.0 | 0.00 | 0.00 | 0.00 | 82 | 1022.2 |
| 20260508175814 | 10 | 263 | 0.0 | 0.0 | 0.00 | 0.00 | 0.00 | 82 | 1022.2 |
| 20260508175311 | 10 | 263 | 0.0 | 0.0 | 0.00 | 0.00 | 0.00 | 81 | 1022.2 |
| 20260508174809 | 10 | 263 | 0.0 | 0.0 | 0.00 | 0.00 | 0.00 | 81 | 1022.2 |
| 20260508174309 | 10 | 263 | 0.0 | 0.0 | 0.00 | 0.00 | 0.00 | 81 | 1022.2 |
| 20260508173854 | 10 | 263 | 0.0 | 0.0 | 0.00 | 0.00 | 0.00 | 81 | 1022.3 |
| 20260508172757 | 10 | 263 | 0.0 | 0.0 | 0.00 | 0.00 | 0.00 | 81 | 1022.2 |
| 20260508172255 | 10 | 263 | 0.0 | 0.0 | 0.00 | 0.00 | 0.00 | 81 | 1022.2 |
| 20260508171755 | 10 | 263 | 0.0 | 0.0 | 0.00 | 0.00 | 0.00 | 81 | 1022.1 |
| 20260508171255 | 10 | 263 | 0.0 | 0.0 | 0.00 | 0.00 | 0.00 | 81 | 1022.0 |
| 20260508170753 | 10 | 263 | 0.0 | 0.0 | 0.00 | 0.00 | 0.00 | 81 | 1022.1 |
| 20260508170252 | 10 | 263 | 0.0 | 0.0 | 0.00 | 0.00 | 0.00 | 81 | 1022.1 |
| 20260508165752 | 10 | 263 | 0.0 | 0.0 | 0.00 | 0.00 | 0.00 | 81 | 1022.1 |
| 20260508165248 | 10 | 263 | 0.0 | 0.0 | 0.00 | 0.00 | 0.00 | 81 | 1022.1 |
| 20260508165013 | 10 | 263 | 0.0 | 0.0 | 0.00 | 0.00 | 0.00 | 81 | 1022.2 |
| 20260508164248 | 10 | 263 | 0.0 | 0.0 | 0.00 | 0.00 | 0.00 | 81 | 1022.2 |
| 20260508163750 | 11 | 263 | 0.0 | 0.0 | 0.00 | 0.00 | 0.00 | 80 | 1022.1 |
| 20260508163244 | 10 | 263 | 0.0 | 0.0 | 0.00 | 0.00 | 0.00 | 80 | 1022.2 |
| 20260508162744 | 10 | 263 | 0.0 | 0.0 | 0.00 | 0.00 | 0.00 | 80 | 1022.1 |
| 20260508162244 | 11 | 263 | 0.0 | 0.0 | 0.00 | 0.00 | 0.00 | 80 | 1022.1 |
| 20260508161741 | 11 | 263 | 0.0 | 0.0 | 0.00 | 0.00 | 0.00 | 80 | 1022.1 |
| 20260508161243 | 11 | 263 | 0.0 | 0.0 | 0.00 | 0.00 | 0.00 | 79 | 1022.1 |
| 20260508160742 | 11 | 263 | 0.0 | 0.0 | 0.00 | 0.00 | 0.00 | 79 | 1022.1 |
| 20260508160248 | 11 | 263 | 0.0 | 0.0 | 0.00 | 0.00 | 0.00 | 78 | 1022.0 |
| 20260508160239 | 11 | 263 | 0.0 | 0.0 | 0.00 | 0.00 | 0.00 | 78 | 1022.1 |
| 20260508155236 | 11 | 263 | 0.0 | 0.0 | 0.00 | 0.00 | 0.00 | 78 | 1022.0 |
| 20260508154738 | 11 | 263 | 0.0 | 0.0 | 0.00 | 0.00 | 0.00 | 78 | 1022.1 |
| 20260508154234 | 11 | 263 | 0.0 | 0.0 | 0.00 | 0.00 | 0.00 | 77 | 1022.0 |
| 20260508153956 | 11 | 263 | 0.0 | 0.0 | 0.00 | 0.00 | 0.00 | 77 | 1022.1 |
| 20260508153232 | 11 | 263 | 0.0 | 0.0 | 0.00 | 0.00 | 0.00 | 76 | 1022.1 |
| 20260508152734 | 11 | 263 | 0.0 | 0.0 | 0.00 | 0.00 | 0.00 | 76 | 1022.0 |
| 20260508152232 | 11 | 263 | 0.0 | 0.0 | 0.00 | 0.00 | 0.00 | 75 | 1022.0 |
| 20260508151731 | 11 | 263 | 0.0 | 0.0 | 0.00 | 0.00 | 0.00 | 75 | 1022.0 |
| 20260508151446 | 11 | 263 | 0.0 | 0.0 | 0.00 | 0.00 | 0.00 | 74 | 1022.2 |
| 20260508150730 | 11 | 263 | 0.0 | 0.0 | 0.00 | 0.00 | 0.00 | 74 | 1022.2 |
| 20260508150722 | 12 | 263 | 0.0 | 0.0 | 0.00 | 0.00 | 0.00 | 74 | 1022.2 |
| 20260508145724 | 12 | 263 | 0.0 | 0.0 | 0.00 | 0.00 | 0.00 | 74 | 1022.0 |
| 20260508145222 | 12 | 263 | 0.0 | 0.0 | 0.00 | 0.00 | 0.00 | 74 | 1022.0 |
| 20260508144721 | 12 | 263 | 0.0 | 0.0 | 0.00 | 0.00 | 0.00 | 73 | 1021.9 |
| 20260508144222 | 12 | 263 | 0.0 | 0.0 | 0.00 | 0.00 | 0.00 | 73 | 1022.0 |
| 20260508144210 | 12 | 263 | 0.0 | 0.0 | 0.00 | 0.00 | 0.00 | 73 | 1022.0 |
| 20260508143218 | 12 | 263 | 0.0 | 0.0 | 0.00 | 0.00 | 0.00 | 72 | 1022.0 |
| 20260508142718 | 12 | 263 | 0.0 | 0.0 | 0.00 | 0.00 | 0.00 | 72 | 1022.0 |
| 20260508142218 | 12 | 263 | 0.0 | 0.0 | 0.00 | 0.00 | 0.00 | 72 | 1022.0 |
| 20260508141941 | 12 | 263 | 0.0 | 0.0 | 0.00 | 0.00 | 0.00 | 72 | 1022.1 |
| 20260508141214 | 12 | 263 | 0.0 | 0.0 | 0.00 | 0.00 | 0.00 | 72 | 1022.1 |
| 20260508140941 | 12 | 263 | 0.0 | 0.0 | 0.00 | 0.00 | 0.00 | 71 | 1022.0 |
| 20260508140213 | 12 | 263 | 0.0 | 0.0 | 0.00 | 0.00 | 0.00 | 71 | 1021.8 |
| 20260508135932 | 12 | 263 | 0.0 | 0.0 | 0.00 | 0.00 | 0.00 | 71 | 1021.8 |
| 20260508135209 | 12 | 263 | 0.0 | 0.0 | 0.00 | 0.00 | 0.00 | 71 | 1021.8 |
| 20260508134702 | 12 | 263 | 0.0 | 0.0 | 0.00 | 0.00 | 0.00 | 71 | 1021.7 |
| 20260508134154 | 13 | 263 | 0.0 | 0.0 | 0.00 | 0.00 | 0.00 | 71 | 1021.7 |
| 20260508133649 | 13 | 263 | 0.0 | 0.0 | 0.00 | 0.00 | 0.00 | 71 | 1021.7 |
| 20260508133149 | 13 | 263 | 0.0 | 0.0 | 0.00 | 0.00 | 0.00 | 70 | 1021.8 |
| 20260508132650 | 13 | 263 | 0.0 | 0.0 | 0.00 | 0.00 | 0.00 | 70 | 1021.8 |
| 20260508132149 | 13 | 263 | 0.0 | 0.0 | 0.00 | 0.00 | 0.00 | 70 | 1021.8 |
| 20260508131647 | 13 | 263 | 0.0 | 0.0 | 0.00 | 0.00 | 0.00 | 70 | 1021.7 |
| 20260508131147 | 13 | 263 | 0.0 | 0.0 | 0.00 | 0.00 | 0.00 | 70 | 1021.7 |
| 20260508130647 | 13 | 263 | 0.0 | 0.0 | 0.00 | 0.00 | 0.00 | 70 | 1021.7 |
| 20260508130148 | 13 | 263 | 0.0 | 0.0 | 0.00 | 0.00 | 0.00 | 70 | 1021.7 |
| 20260508125645 | 13 | 263 | 0.0 | 0.0 | 0.00 | 0.00 | 0.00 | 69 | 1021.7 |
| 20260508125403 | 13 | 263 | 0.0 | 0.0 | 0.00 | 0.00 | 0.00 | 69 | 1021.7 |
| 20260508124641 | 13 | 263 | 0.0 | 0.0 | 0.00 | 0.00 | 0.00 | 69 | 1021.8 |
| 20260508124142 | 13 | 263 | 0.0 | 0.0 | 0.00 | 0.00 | 0.00 | 69 | 1021.8 |
| 20260508123903 | 13 | 263 | 0.0 | 0.0 | 0.00 | 0.00 | 0.00 | 69 | 1021.7 |
| 20260508123143 | 13 | 263 | 0.0 | 0.0 | 0.00 | 0.00 | 0.00 | 69 | 1021.7 |
| 20260508122641 | 13 | 263 | 0.0 | 0.0 | 0.00 | 0.00 | 0.00 | 68 | 1021.7 |
| 20260508122141 | 13 | 263 | 0.0 | 0.0 | 0.00 | 0.00 | 0.00 | 68 | 1021.7 |
| 20260508121640 | 13 | 263 | 0.0 | 0.0 | 0.00 | 0.00 | 0.00 | 68 | 1021.7 |
| 20260508121140 | 13 | 263 | 0.0 | 0.0 | 0.00 | 0.00 | 0.00 | 68 | 1021.8 |
| 20260508120637 | 13 | 263 | 0.0 | 0.0 | 0.00 | 0.00 | 0.00 | 68 | 1021.7 |
| 20260508120133 | 13 | 263 | 0.0 | 0.0 | 0.00 | 0.00 | 0.00 | 67 | 1021.6 |
| 20260508115633 | 13 | 263 | 0.0 | 0.0 | 0.00 | 0.00 | 0.00 | 67 | 1021.6 |
| 20260508115130 | 14 | 263 | 0.0 | 0.0 | 0.00 | 0.00 | 0.00 | 67 | 1021.6 |
| 20260508114628 | 14 | 263 | 0.0 | 0.0 | 0.00 | 0.00 | 0.00 | 67 | 1021.7 |
| 20260508114128 | 14 | 263 | 0.0 | 0.0 | 0.00 | 0.00 | 0.00 | 66 | 1021.7 |
| 20260508113849 | 14 | 263 | 0.0 | 0.0 | 0.00 | 0.00 | 0.00 | 66 | 1021.7 |
| 20260508113129 | 14 | 263 | 0.0 | 0.0 | 0.00 | 0.00 | 0.00 | 65 | 1021.6 |
| 20260508112623 | 14 | 263 | 0.0 | 0.0 | 0.00 | 0.00 | 0.00 | 66 | 1021.6 |
| 20260508112123 | 14 | 263 | 0.0 | 0.0 | 0.00 | 0.00 | 0.00 | 66 | 1021.6 |
| 20260508111623 | 14 | 263 | 0.0 | 0.0 | 0.00 | 0.00 | 0.00 | 66 | 1021.5 |
| 20260508111342 | 14 | 263 | 6.4 | 24.1 | 0.00 | 0.00 | 0.00 | 66 | 1021.4 |
| 20260508110622 | 14 | 263 | 11.3 | 24.1 | 0.00 | 0.00 | 0.00 | 66 | 1021.2 |
| 20260508110123 | 14 | 263 | 8.0 | 20.9 | 0.00 | 0.00 | 0.00 | 66 | 1021.1 |
| 20260508105621 | 14 | 262 | 3.2 | 17.7 | 0.00 | 0.00 | 0.00 | 66 | 1021.2 |
| 20260508105123 | 14 | 262 | 0.0 | 0.0 | 0.00 | 0.00 | 0.00 | 65 | 1021.2 |
| 20260508104622 | 14 | 262 | 0.0 | 0.0 | 0.00 | 0.00 | 0.00 | 65 | 1021.3 |
| 20260508104339 | 14 | 262 | 0.0 | 0.0 | 0.00 | 0.00 | 0.00 | 65 | 1021.2 |
| 20260508103621 | 15 | 262 | 0.0 | 0.0 | 0.00 | 0.00 | 0.00 | 64 | 1021.2 |
| 20260508103344 | 15 | 262 | 0.0 | 0.0 | 0.00 | 0.00 | 0.00 | 64 | 1021.2 |
| 20260508102617 | 15 | 262 | 0.0 | 0.0 | 0.00 | 0.00 | 0.00 | 64 | 1021.1 |